Ciclone tropical STEVE 2000: trajetória, intensidade e histórico
11/03/2000, 22:00:00
25/02/2000, 00:00:00 – 11/03/2000, 22:00:00
Trajetória histórica
Acompanhe a evolução e o deslocamento de Ciclone tropical STEVE em 2000, com a trajetória completa registrada, ventos máximos sustentados de 65 nós, pressão central mínima e cronologia detalhada.
| Data | Hora | Tipo | Ventokm/h | PressãohPa |
|---|---|---|---|---|
| 11/03 | 22:00 | C3Ciclone tropical de categoria 3 | 65 | 995 |
| 11/03 | 21:00 | EXCiclone extratropical | 65 | 994 |
| 11/03 | 18:00 | EXCiclone extratropical | 70 | 992 |
| 11/03 | 16:00 | C3Ciclone tropical de categoria 3 | 75 | 990 |
| 11/03 | 15:00 | EXCiclone extratropical | 75 | 990 |
| 11/03 | 12:00 | EXCiclone extratropical | 75 | 990 |
| 11/03 | 10:00 | C3Ciclone tropical de categoria 3 | 75 | 990 |
| 11/03 | 09:00 | TSTempestade tropical | 75 | 990 |
| 11/03 | 06:00 | TSTempestade tropical | 75 | 990 |
| 11/03 | 04:00 | TDDepressão tropical | 75 | 990 |
| 11/03 | 03:00 | TSTempestade tropical | 75 | 990 |
| 11/03 | 00:00 | TDDepressão tropical | 35 | 990 |
| 10/03 | 22:00 | TDDepressão tropical | 40 | 990 |
| 10/03 | 21:00 | TDDepressão tropical | 45 | 990 |
| 10/03 | 18:00 | TDDepressão tropical | 45 | 990 |
| 10/03 | 16:00 | TDDepressão tropical | 50 | 990 |
| 10/03 | 15:00 | TDDepressão tropical | 50 | 990 |
| 10/03 | 12:00 | TDDepressão tropical | 55 | 990 |
| 10/03 | 10:00 | TDDepressão tropical | 60 | 990 |
| 10/03 | 09:00 | TDDepressão tropical | 60 | 989 |
| 10/03 | 06:00 | TSTempestade tropical | 65 | 987 |
| 10/03 | 04:00 | TDDepressão tropical | 65 | 985 |
| 10/03 | 03:00 | TSTempestade tropical | 65 | 985 |
| 10/03 | 00:00 | TSTempestade tropical | 65 | 985 |
| 09/03 | 22:00 | TDDepressão tropical | 70 | 985 |
| 09/03 | 21:00 | TSTempestade tropical | 70 | 984 |
| 09/03 | 18:00 | TSTempestade tropical | 75 | 982 |
| 09/03 | 16:00 | C1Ciclone tropical de categoria 1 | 80 | 980 |
| 09/03 | 15:00 | TSTempestade tropical | 85 | 980 |
| 09/03 | 13:00 | C1Ciclone tropical de categoria 1 | 90 | 980 |
| 09/03 | 12:00 | TSTempestade tropical | 95 | 980 |
| 09/03 | 10:00 | C1Ciclone tropical de categoria 1 | 90 | 980 |
| 09/03 | 09:00 | TSTempestade tropical | 90 | 980 |
| 09/03 | 07:00 | C1Ciclone tropical de categoria 1 | 85 | 980 |
| 09/03 | 06:00 | TSTempestade tropical | 85 | 980 |
| 09/03 | 04:00 | C1Ciclone tropical de categoria 1 | 85 | 980 |
| 09/03 | 03:00 | TSTempestade tropical | 85 | 980 |
| 09/03 | 01:00 | C1Ciclone tropical de categoria 1 | 85 | 980 |
| 09/03 | 00:00 | TSTempestade tropical | 85 | 980 |
| 08/03 | 22:00 | C1Ciclone tropical de categoria 1 | 85 | 980 |
| 08/03 | 21:00 | TSTempestade tropical | 90 | 980 |
| 08/03 | 19:00 | C1Ciclone tropical de categoria 1 | 90 | 980 |
| 08/03 | 18:00 | TSTempestade tropical | 95 | 980 |
| 08/03 | 16:00 | C1Ciclone tropical de categoria 1 | 95 | 980 |
| 08/03 | 15:00 | TSTempestade tropical | 95 | 980 |
| 08/03 | 13:00 | C1Ciclone tropical de categoria 1 | 95 | 980 |
| 08/03 | 12:00 | TSTempestade tropical | 95 | 980 |
| 08/03 | 10:00 | C1Ciclone tropical de categoria 1 | 95 | 980 |
| 08/03 | 09:00 | TSTempestade tropical | 95 | 980 |
| 08/03 | 07:00 | C1Ciclone tropical de categoria 1 | 95 | 980 |
| 08/03 | 06:00 | TSTempestade tropical | 95 | 980 |
| 08/03 | 04:00 | C1Ciclone tropical de categoria 1 | 95 | 980 |
| 08/03 | 03:00 | TSTempestade tropical | 100 | 980 |
| 08/03 | 01:00 | C1Ciclone tropical de categoria 1 | 100 | 980 |
| 08/03 | 00:00 | TSTempestade tropical | 100 | 980 |
| 07/03 | 22:00 | C1Ciclone tropical de categoria 1 | 100 | 980 |
| 07/03 | 21:00 | TSTempestade tropical | 100 | 980 |
| 07/03 | 19:00 | C1Ciclone tropical de categoria 1 | 100 | 980 |
| 07/03 | 18:00 | TSTempestade tropical | 100 | 980 |
| 07/03 | 16:00 | C1Ciclone tropical de categoria 1 | 100 | 980 |
| 07/03 | 15:00 | TSTempestade tropical | 100 | 980 |
| 07/03 | 13:00 | C1Ciclone tropical de categoria 1 | 100 | 980 |
| 07/03 | 12:00 | TSTempestade tropical | 100 | 980 |
| 07/03 | 10:00 | C1Ciclone tropical de categoria 1 | 100 | 980 |
| 07/03 | 09:00 | TSTempestade tropical | 100 | 980 |
| 07/03 | 07:00 | C1Ciclone tropical de categoria 1 | 100 | 980 |
| 07/03 | 06:00 | TSTempestade tropical | 100 | 980 |
| 07/03 | 04:00 | C1Ciclone tropical de categoria 1 | 100 | 980 |
| 07/03 | 03:00 | TSTempestade tropical | 100 | 980 |
| 07/03 | 01:00 | C1Ciclone tropical de categoria 1 | 100 | 980 |
| 07/03 | 00:00 | TSTempestade tropical | 100 | 980 |
| 06/03 | 22:00 | C1Ciclone tropical de categoria 1 | 100 | 980 |
| 06/03 | 21:00 | TSTempestade tropical | 100 | 980 |
| 06/03 | 19:00 | C1Ciclone tropical de categoria 1 | 100 | 980 |
| 06/03 | 18:00 | TSTempestade tropical | 100 | 980 |
| 06/03 | 16:00 | C1Ciclone tropical de categoria 1 | 105 | 980 |
| 06/03 | 15:00 | TSTempestade tropical | 110 | 978 |
| 06/03 | 13:00 | C1Ciclone tropical de categoria 1 | 115 | 975 |
| 06/03 | 12:00 | TCCiclone tropical | 120 | 975 |
| 06/03 | 10:00 | C1Ciclone tropical de categoria 1 | 120 | 975 |
| 06/03 | 09:00 | TCCiclone tropical | 120 | 975 |
| 06/03 | 07:00 | C1Ciclone tropical de categoria 1 | 120 | 975 |
| 06/03 | 06:00 | TCCiclone tropical | 120 | 975 |
| 06/03 | 04:00 | C1Ciclone tropical de categoria 1 | 115 | 975 |
| 06/03 | 03:00 | TSTempestade tropical | 110 | 975 |
| 06/03 | 01:00 | C1Ciclone tropical de categoria 1 | 105 | 975 |
| 06/03 | 00:00 | TSTempestade tropical | 100 | 975 |
| 05/03 | 22:00 | C1Ciclone tropical de categoria 1 | 100 | 975 |
| 05/03 | 21:00 | TSTempestade tropical | 100 | 977 |
| 05/03 | 19:00 | C1Ciclone tropical de categoria 1 | 100 | 980 |
| 05/03 | 18:00 | TSTempestade tropical | 100 | 982 |
| 05/03 | 16:00 | C1Ciclone tropical de categoria 1 | 95 | 985 |
| 05/03 | 15:00 | TSTempestade tropical | 95 | 985 |
| 05/03 | 13:00 | C1Ciclone tropical de categoria 1 | 85 | 985 |
| 05/03 | 12:00 | TSTempestade tropical | 85 | 985 |
| 05/03 | 10:00 | C1Ciclone tropical de categoria 1 | 80 | 985 |
| 05/03 | 09:00 | TSTempestade tropical | 80 | 985 |
| 05/03 | 06:00 | TSTempestade tropical | 75 | 985 |
| 05/03 | 04:00 | C1Ciclone tropical de categoria 1 | 70 | 985 |
| 05/03 | 03:00 | TSTempestade tropical | 70 | 986 |
| 05/03 | 00:00 | TSTempestade tropical | 65 | 988 |
| 04/03 | 22:00 | C1Ciclone tropical de categoria 1 | 60 | 990 |
| 04/03 | 21:00 | TDDepressão tropical | 60 | 990 |
| 04/03 | 18:00 | TDDepressão tropical | 55 | 990 |
| 04/03 | 16:00 | TDDepressão tropical | 55 | 990 |
| 04/03 | 15:00 | TDDepressão tropical | 55 | 991 |
| 04/03 | 12:00 | TDDepressão tropical | 55 | 993 |
| 04/03 | 10:00 | TDDepressão tropical | 55 | 995 |
| 04/03 | 09:00 | TDDepressão tropical | 55 | 995 |
| 04/03 | 06:00 | TDDepressão tropical | 55 | 995 |
| 04/03 | 04:00 | TDDepressão tropical | 55 | 995 |
| 04/03 | 03:00 | TDDepressão tropical | 55 | 995 |
| 04/03 | 00:00 | TDDepressão tropical | 55 | 995 |
| 03/03 | 21:00 | TDDepressão tropical | 55 | 995 |
| 03/03 | 18:00 | TDDepressão tropical | 55 | 995 |
| 03/03 | 15:00 | TDDepressão tropical | 50 | 995 |
| 03/03 | 12:00 | TDDepressão tropical | 45 | 995 |
| 03/03 | 09:00 | TDDepressão tropical | 45 | 995 |
| 03/03 | 06:00 | TDDepressão tropical | 45 | 994 |
| 03/03 | 03:00 | TDDepressão tropical | 45 | 994 |
| 03/03 | 00:00 | TDDepressão tropical | 45 | 994 |
| 02/03 | 21:00 | TDDepressão tropical | 45 | 993 |
| 02/03 | 18:00 | TDDepressão tropical | 45 | 992 |
| 02/03 | 15:00 | TDDepressão tropical | 45 | 993 |
| 02/03 | 12:00 | TDDepressão tropical | 45 | 994 |
| 02/03 | 09:00 | TDDepressão tropical | 45 | 994 |
| 02/03 | 06:00 | TDDepressão tropical | 45 | 993 |
| 02/03 | 03:00 | TDDepressão tropical | 45 | 994 |
| 02/03 | 00:00 | TDDepressão tropical | 45 | 995 |
| 01/03 | 21:00 | TDDepressão tropical | 45 | 995 |
| 01/03 | 18:00 | TDDepressão tropical | 45 | 995 |
| 01/03 | 15:00 | TDDepressão tropical | 45 | 995 |
| 01/03 | 12:00 | TDDepressão tropical | 45 | 995 |
| 01/03 | 09:00 | TDDepressão tropical | 50 | 994 |
| 01/03 | 06:00 | TDDepressão tropical | 55 | 992 |
| 01/03 | 03:00 | C1Ciclone tropical de categoria 1 | 60 | 990 |
| 01/03 | 00:00 | C1Ciclone tropical de categoria 1 | 65 | 987 |
| 29/02 | 22:00 | C1Ciclone tropical de categoria 1 | 70 | 985 |
| 29/02 | 21:00 | C1Ciclone tropical de categoria 1 | 75 | 985 |
| 29/02 | 18:00 | C1Ciclone tropical de categoria 1 | 85 | 985 |
| 29/02 | 15:00 | TSTempestade tropical | 80 | 987 |
| 29/02 | 13:00 | C1Ciclone tropical de categoria 1 | 75 | 988 |
| 29/02 | 12:00 | TSTempestade tropical | 75 | 988 |
| 29/02 | 09:00 | TSTempestade tropical | 70 | 988 |
| 29/02 | 06:00 | C1Ciclone tropical de categoria 1 | 65 | 988 |
| 29/02 | 03:00 | TDDepressão tropical | 60 | 988 |
| 29/02 | 00:00 | C1Ciclone tropical de categoria 1 | 55 | 988 |
| 28/02 | 21:00 | TDDepressão tropical | 50 | 990 |
| 28/02 | 18:00 | C1Ciclone tropical de categoria 1 | 45 | 992 |
| 28/02 | 15:00 | TDDepressão tropical | 45 | 994 |
| 28/02 | 12:00 | C1Ciclone tropical de categoria 1 | 45 | 995 |
| 28/02 | 09:00 | TDDepressão tropical | 45 | 999 |
| 28/02 | 06:00 | TDDepressão tropical | 45 | 1002 |
| 28/02 | 03:00 | TDDepressão tropical | 45 | 1002 |
| 28/02 | 00:00 | TDDepressão tropical | 45 | 1002 |
| 27/02 | 21:00 | TDDepressão tropical | 50 | 1001 |
| 27/02 | 18:00 | TDDepressão tropical | 55 | 999 |
| 27/02 | 15:00 | TDDepressão tropical | 60 | 995 |
| 27/02 | 12:00 | C1Ciclone tropical de categoria 1 | 65 | 990 |
| 27/02 | 09:30 | C1Ciclone tropical de categoria 1 | 70 | 975 |
| 27/02 | 09:00 | C1Ciclone tropical de categoria 1 | 70 | 975 |
| 27/02 | 06:00 | C1Ciclone tropical de categoria 1 | 75 | 980 |
| 27/02 | 03:00 | TSTempestade tropical | 75 | 984 |
| 27/02 | 00:00 | C1Ciclone tropical de categoria 1 | 75 | 988 |
| 26/02 | 21:00 | C1Ciclone tropical de categoria 1 | 70 | 994 |
| 26/02 | 18:00 | TDDepressão tropical | 65 | 996 |
| 26/02 | 15:00 | TDDepressão tropical | 60 | 997 |
| 26/02 | 12:00 | TDDepressão tropical | 55 | 998 |
| 26/02 | 09:00 | TDDepressão tropical | 50 | 998 |
| 26/02 | 06:00 | TDDepressão tropical | 45 | 998 |
| 26/02 | 03:00 | TDDepressão tropical | 45 | 999 |
| 26/02 | 00:00 | TDDepressão tropical | 45 | 1000 |
| 25/02 | 21:00 | TDDepressão tropical | 45 | 1000 |
| 25/02 | 18:00 | TDDepressão tropical | 45 | 1000 |
| 25/02 | 15:00 | TDDepressão tropical | 45 | 1001 |
| 25/02 | 12:00 | TDDepressão tropical | 45 | 1002 |
| 25/02 | 09:00 | TDDepressão tropical | 45 | 1001 |
| 25/02 | 06:00 | TDDepressão tropical | 45 | 1002 |
| 25/02 | 03:00 | TDDepressão tropical | 45 | 1002 |
| 25/02 | 00:00 | TDDepressão tropical | 45 | 1004 |
Cronologia de localização
180 Registos de localizaçãoDesastres naturais próximos
Detalhes do evento
Ligações das fontes
Também pode encontrar estas ferramentas úteis
A localização, a extensão e o estado de cada evento podem ser atualizados em momentos diferentes consoante a fonte. Confirme decisões importantes junto das autoridades oficiais de emergência.
Os registos de eventos provêm da NASA EONET e são complementados por registos de deslizamentos de terra do USGS FDSN. As análises e previsões de tempestades podem utilizar a NOAA NHC ou o JTWC, com registos históricos ATCF da UCAR/NCAR quando disponíveis. As imagens de satélite provêm da NASA Worldview/GIBS (GOES e Himawari) ou da EUMETSAT Meteosat, consoante a cobertura do mapa.
Fontes: NASA EONET · USGS · NOAA NHC · JTWC · UCAR/NCAR ATCF · NASA Worldview/GIBS · EUMETSAT Meteosat · OpenStreetMap contributors